Wetterdaten: Dienstag, 08.03.2016
Datum Zeit Temperatur Luftfeuchte Luftdruck Regen Wind Richtung Richtung Sonnenschein ET UV Solar Taupunkt Windchill Windben
08.03.2016 00:00 -1,4 C 96 % 1009,6 hPa 0,0 l/m 0,0 km/h (0 Bft) W 262 0 min 0,000 mm 0,0 UV-I 0 W/m -2,0 C -1,4 C 0,0 km/h (0 Bft)
08.03.2016 00:05 -1,4 C 96 % 1009,7 hPa 0,0 l/m 0,0 km/h (0 Bft) W 262 0 min 0,000 mm 0,0 UV-I 0 W/m -2,0 C -1,4 C 0,0 km/h (0 Bft)
08.03.2016 00:10 -1,4 C 96 % 1009,7 hPa 0,0 l/m 0,0 km/h (0 Bft) W 262 0 min 0,000 mm 0,0 UV-I 0 W/m -2,0 C -1,4 C 0,0 km/h (0 Bft)
08.03.2016 00:15 -1,4 C 96 % 1009,7 hPa 0,0 l/m 0,0 km/h (0 Bft) W 262 0 min 0,000 mm 0,0 UV-I 0 W/m -2,0 C -1,4 C 0,0 km/h (0 Bft)
08.03.2016 00:20 -1,4 C 96 % 1009,7 hPa 0,0 l/m 0,0 km/h (0 Bft) W 262 0 min 0,000 mm 0,0 UV-I 0 W/m -2,0 C -1,4 C 0,0 km/h (0 Bft)
08.03.2016 00:25 -1,4 C 96 % 1009,8 hPa 0,0 l/m 0,0 km/h (0 Bft) W 263 0 min 0,000 mm 0,0 UV-I 0 W/m -2,0 C -1,4 C 0,0 km/h (0 Bft)
08.03.2016 00:30 -1,5 C 96 % 1009,8 hPa 0,0 l/m 0,0 km/h (0 Bft) W 263 0 min 0,000 mm 0,0 UV-I 0 W/m -2,1 C -1,5 C 0,0 km/h (0 Bft)
08.03.2016 00:35 -1,5 C 96 % 1009,8 hPa 0,0 l/m 0,0 km/h (0 Bft) W 263 0 min 0,000 mm 0,0 UV-I 0 W/m -2,1 C -1,5 C 0,0 km/h (0 Bft)
08.03.2016 00:40 -1,6 C 96 % 1009,8 hPa 0,0 l/m 0,0 km/h (0 Bft) W 263 0 min 0,000 mm 0,0 UV-I 0 W/m -2,2 C -1,6 C 0,0 km/h (0 Bft)
08.03.2016 00:45 -1,7 C 96 % 1009,9 hPa 0,0 l/m 0,0 km/h (0 Bft) W-NW 302 0 min 0,000 mm 0,0 UV-I 0 W/m -2,3 C -1,7 C 0,0 km/h (0 Bft)
08.03.2016 00:50 -1,7 C 95 % 1009,9 hPa 0,0 l/m 0,0 km/h (0 Bft) W-NW 302 0 min 0,000 mm 0,0 UV-I 0 W/m -2,4 C -1,7 C 0,0 km/h (0 Bft)
08.03.2016 00:55 -1,7 C 96 % 1010,0 hPa 0,0 l/m 0,0 km/h (0 Bft) W-NW 302 0 min 0,000 mm 0,0 UV-I 0 W/m -2,3 C -1,7 C 0,0 km/h (0 Bft)
08.03.2016 01:00 -1,7 C 96 % 1010,1 hPa 0,0 l/m 0,0 km/h (0 Bft) W-NW 302 0 min 0,000 mm 0,0 UV-I 0 W/m -2,3 C -1,7 C 0,0 km/h (0 Bft)
08.03.2016 01:05 -1,7 C 96 % 1010,2 hPa 0,0 l/m 0,0 km/h (0 Bft) W-NW 302 0 min 0,000 mm 0,0 UV-I 0 W/m -2,3 C -1,7 C 0,0 km/h (0 Bft)
08.03.2016 01:10 -1,7 C 96 % 1010,2 hPa 0,0 l/m 0,0 km/h (0 Bft) W-NW 302 0 min 0,000 mm 0,0 UV-I 0 W/m -2,3 C -1,7 C 0,0 km/h (0 Bft)
08.03.2016 01:15 -1,6 C 96 % 1010,3 hPa 0,0 l/m 0,0 km/h (0 Bft) W-NW 302 0 min 0,000 mm 0,0 UV-I 0 W/m -2,2 C -1,6 C 0,0 km/h (0 Bft)
08.03.2016 01:20 -1,7 C 96 % 1010,3 hPa 0,0 l/m 0,0 km/h (0 Bft) W-NW 302 0 min 0,000 mm 0,0 UV-I 0 W/m -2,3 C -1,7 C 0,0 km/h (0 Bft)
08.03.2016 01:25 -1,7 C 96 % 1010,4 hPa 0,0 l/m 0,0 km/h (0 Bft) W-NW 302 0 min 0,000 mm 0,0 UV-I 0 W/m -2,3 C -1,7 C 0,0 km/h (0 Bft)
08.03.2016 01:30 -1,7 C 96 % 1010,4 hPa 0,0 l/m 0,0 km/h (0 Bft) W-NW 302 0 min 0,000 mm 0,0 UV-I 0 W/m -2,3 C -1,7 C 0,0 km/h (0 Bft)
08.03.2016 01:35 -1,7 C 96 % 1010,5 hPa 0,0 l/m 0,0 km/h (0 Bft) W-NW 302 0 min 0,000 mm 0,0 UV-I 0 W/m -2,3 C -1,7 C 0,0 km/h (0 Bft)
08.03.2016 01:40 -1,7 C 96 % 1010,5 hPa 0,0 l/m 0,0 km/h (0 Bft) W-NW 302 0 min 0,000 mm 0,0 UV-I 0 W/m -2,3 C -1,7 C 0,0 km/h (0 Bft)
08.03.2016 01:45 -1,7 C 96 % 1010,5 hPa 0,0 l/m 0,0 km/h (0 Bft) W-NW 302 0 min 0,000 mm 0,0 UV-I 0 W/m -2,3 C -1,7 C 0,0 km/h (0 Bft)
08.03.2016 01:50 -1,7 C 96 % 1010,5 hPa 0,0 l/m 0,0 km/h (0 Bft) W-NW 302 0 min 0,000 mm 0,0 UV-I 0 W/m -2,3 C -1,7 C 0,0 km/h (0 Bft)
08.03.2016 01:55 -1,7 C 96 % 1010,6 hPa 0,0 l/m 0,0 km/h (0 Bft) W-NW 302 0 min 0,000 mm 0,0 UV-I 0 W/m -2,3 C -1,7 C 0,0 km/h (0 Bft)
08.03.2016 02:00 -1,7 C 96 % 1010,5 hPa 0,0 l/m 0,0 km/h (0 Bft) W-NW 302 0 min 0,000 mm 0,0 UV-I 0 W/m -2,3 C -1,7 C 0,0 km/h (0 Bft)
08.03.2016 02:05 -1,7 C 96 % 1010,7 hPa 0,0 l/m 0,0 km/h (0 Bft) W-NW 302 0 min 0,000 mm 0,0 UV-I 0 W/m -2,3 C -1,7 C 0,0 km/h (0 Bft)
08.03.2016 02:10 -1,7 C 96 % 1010,7 hPa 0,0 l/m 0,0 km/h (0 Bft) W-NW 302 0 min 0,000 mm 0,0 UV-I 0 W/m -2,3 C -1,7 C 0,0 km/h (0 Bft)
08.03.2016 02:15 -1,7 C 96 % 1010,7 hPa 0,0 l/m 0,0 km/h (0 Bft) W-NW 302 0 min 0,000 mm 0,0 UV-I 0 W/m -2,3 C -1,7 C 0,0 km/h (0 Bft)
08.03.2016 02:20 -1,7 C 96 % 1010,8 hPa 0,0 l/m 0,0 km/h (0 Bft) W 279 0 min 0,000 mm 0,0 UV-I 0 W/m -2,3 C -1,7 C 0,0 km/h (0 Bft)
08.03.2016 02:25 -1,9 C 96 % 1010,8 hPa 0,0 l/m 0,0 km/h (0 Bft) W-NW 284 0 min 0,000 mm 0,0 UV-I 0 W/m -2,5 C -1,9 C 0,0 km/h (0 Bft)
08.03.2016 02:30 -1,9 C 95 % 1010,8 hPa 0,0 l/m 0,0 km/h (0 Bft) NW 319 0 min 0,000 mm 0,0 UV-I 0 W/m -2,6 C -1,9 C 0,0 km/h (0 Bft)
08.03.2016 02:35 -1,9 C 96 % 1010,8 hPa 0,0 l/m 0,0 km/h (0 Bft) NW 308 0 min 0,000 mm 0,0 UV-I 0 W/m -2,5 C -1,9 C 0,0 km/h (0 Bft)
08.03.2016 02:40 -2,0 C 95 % 1010,9 hPa 0,0 l/m 0,0 km/h (0 Bft) NW 309 0 min 0,000 mm 0,0 UV-I 0 W/m -2,7 C -2,0 C 0,0 km/h (0 Bft)
08.03.2016 02:45 -2,1 C 95 % 1010,9 hPa 0,0 l/m 0,0 km/h (0 Bft) W-NW 289 0 min 0,000 mm 0,0 UV-I 0 W/m -2,8 C -2,1 C 0,0 km/h (0 Bft)
08.03.2016 02:50 -2,1 C 96 % 1010,9 hPa 0,0 l/m 0,0 km/h (0 Bft) W-NW 289 0 min 0,000 mm 0,0 UV-I 0 W/m -2,6 C -2,1 C 0,0 km/h (0 Bft)
08.03.2016 02:55 -2,1 C 96 % 1010,9 hPa 0,0 l/m 0,0 km/h (0 Bft) W-NW 289 0 min 0,000 mm 0,0 UV-I 0 W/m -2,6 C -2,1 C 0,0 km/h (0 Bft)
08.03.2016 03:00 -2,1 C 96 % 1010,9 hPa 0,0 l/m 0,0 km/h (0 Bft) W-NW 289 0 min 0,000 mm 0,0 UV-I 0 W/m -2,6 C -2,1 C 0,0 km/h (0 Bft)
08.03.2016 03:05 -2,1 C 96 % 1010,9 hPa 0,0 l/m 0,0 km/h (0 Bft) W-NW 289 0 min 0,000 mm 0,0 UV-I 0 W/m -2,6 C -2,1 C 0,0 km/h (0 Bft)
08.03.2016 03:10 -2,1 C 96 % 1011,1 hPa 0,0 l/m 0,0 km/h (0 Bft) NW 304 0 min 0,000 mm 0,0 UV-I 0 W/m -2,6 C -2,1 C 0,0 km/h (0 Bft)
08.03.2016 03:15 -2,2 C 96 % 1011,1 hPa 0,0 l/m 0,0 km/h (0 Bft) W 274 0 min 0,000 mm 0,0 UV-I 0 W/m -2,7 C -2,2 C 0,0 km/h (0 Bft)
08.03.2016 03:20 -2,2 C 96 % 1011,1 hPa 0,0 l/m 0,0 km/h (0 Bft) NW 314 0 min 0,000 mm 0,0 UV-I 0 W/m -2,7 C -2,2 C 0,0 km/h (0 Bft)
08.03.2016 03:25 -2,2 C 96 % 1011,1 hPa 0,0 l/m 0,0 km/h (0 Bft) W-NW 292 0 min 0,000 mm 0,0 UV-I 0 W/m -2,7 C -2,2 C 0,0 km/h (0 Bft)
08.03.2016 03:30 -2,3 C 95 % 1011,1 hPa 0,0 l/m 0,0 km/h (0 Bft) W 277 0 min 0,000 mm 0,0 UV-I 0 W/m -3,0 C -2,3 C 0,0 km/h (0 Bft)
08.03.2016 03:35 -2,3 C 96 % 1011,2 hPa 0,0 l/m 0,0 km/h (0 Bft) W-NW 293 0 min 0,000 mm 0,0 UV-I 0 W/m -2,8 C -2,3 C 0,0 km/h (0 Bft)
08.03.2016 03:40 -2,3 C 96 % 1011,2 hPa 0,0 l/m 0,0 km/h (0 Bft) W-NW 293 0 min 0,000 mm 0,0 UV-I 0 W/m -2,8 C -2,3 C 0,0 km/h (0 Bft)
08.03.2016 03:45 -2,3 C 96 % 1011,3 hPa 0,0 l/m 0,0 km/h (0 Bft) W-NW 293 0 min 0,000 mm 0,0 UV-I 0 W/m -2,8 C -2,3 C 0,0 km/h (0 Bft)
08.03.2016 03:50 -2,3 C 96 % 1011,3 hPa 0,0 l/m 0,0 km/h (0 Bft) W-NW 293 0 min 0,000 mm 0,0 UV-I 0 W/m -2,8 C -2,3 C 0,0 km/h (0 Bft)
08.03.2016 03:55 -2,3 C 96 % 1011,4 hPa 0,0 l/m 0,0 km/h (0 Bft) W-NW 293 0 min 0,000 mm 0,0 UV-I 0 W/m -2,8 C -2,3 C 0,0 km/h (0 Bft)
08.03.2016 04:00 -2,3 C 96 % 1011,4 hPa 0,0 l/m 0,0 km/h (0 Bft) NW 308 0 min 0,000 mm 0,0 UV-I 0 W/m -2,8 C -2,3 C 0,0 km/h (0 Bft)
08.03.2016 04:05 -2,3 C 96 % 1011,5 hPa 0,0 l/m 0,0 km/h (0 Bft) NW 304 0 min 0,000 mm 0,0 UV-I 0 W/m -2,8 C -2,3 C 0,0 km/h (0 Bft)
08.03.2016 04:10 -2,3 C 96 % 1011,6 hPa 0,0 l/m 0,0 km/h (0 Bft) W 280 0 min 0,000 mm 0,0 UV-I 0 W/m -2,8 C -2,3 C 0,0 km/h (0 Bft)
08.03.2016 04:15 -2,3 C 96 % 1011,6 hPa 0,0 l/m 0,0 km/h (0 Bft) W 280 0 min 0,000 mm 0,0 UV-I 0 W/m -2,8 C -2,3 C 0,0 km/h (0 Bft)
08.03.2016 04:20 -2,3 C 96 % 1011,7 hPa 0,0 l/m 0,0 km/h (0 Bft) W-NW 294 0 min 0,000 mm 0,0 UV-I 0 W/m -2,8 C -2,3 C 0,0 km/h (0 Bft)
08.03.2016 04:25 -2,3 C 96 % 1011,8 hPa 0,0 l/m 0,0 km/h (0 Bft) W-SW 252 0 min 0,000 mm 0,0 UV-I 0 W/m -2,8 C -2,3 C 0,0 km/h (0 Bft)
08.03.2016 04:30 -2,2 C 96 % 1011,9 hPa 0,0 l/m 0,0 km/h (0 Bft) W-NW 294 0 min 0,000 mm 0,0 UV-I 0 W/m -2,7 C -2,2 C 0,0 km/h (0 Bft)
08.03.2016 04:35 -2,2 C 96 % 1011,9 hPa 0,0 l/m 0,0 km/h (0 Bft) W-NW 292 0 min 0,000 mm 0,0 UV-I 0 W/m -2,7 C -2,2 C 0,0 km/h (0 Bft)
08.03.2016 04:40 -2,2 C 96 % 1011,9 hPa 0,0 l/m 0,0 km/h (0 Bft) W 269 0 min 0,000 mm 0,0 UV-I 0 W/m -2,7 C -2,2 C 0,0 km/h (0 Bft)
08.03.2016 04:45 -2,1 C 96 % 1012,0 hPa 0,0 l/m 0,0 km/h (0 Bft) W-NW 300 0 min 0,000 mm 0,0 UV-I 0 W/m -2,6 C -2,1 C 0,0 km/h (0 Bft)
08.03.2016 04:50 -2,0 C 96 % 1012,1 hPa 0,0 l/m 0,0 km/h (0 Bft) W-NW 294 0 min 0,000 mm 0,0 UV-I 0 W/m -2,6 C -2,0 C 0,0 km/h (0 Bft)
08.03.2016 04:55 -1,9 C 96 % 1012,2 hPa 0,0 l/m 0,0 km/h (0 Bft) W-NW 298 0 min 0,000 mm 0,0 UV-I 0 W/m -2,5 C -1,9 C 0,0 km/h (0 Bft)
08.03.2016 05:00 -1,9 C 96 % 1012,2 hPa 0,0 l/m 0,0 km/h (0 Bft) NW 304 0 min 0,000 mm 0,0 UV-I 0 W/m -2,5 C -1,9 C 0,0 km/h (0 Bft)
08.03.2016 05:05 -1,8 C 96 % 1012,3 hPa 0,0 l/m 0,0 km/h (0 Bft) W-NW 284 0 min 0,000 mm 0,0 UV-I 0 W/m -2,4 C -1,8 C 0,0 km/h (0 Bft)
08.03.2016 05:10 -1,7 C 96 % 1012,3 hPa 0,0 l/m 0,0 km/h (0 Bft) W-NW 288 0 min 0,000 mm 0,0 UV-I 0 W/m -2,3 C -1,7 C 0,0 km/h (0 Bft)
08.03.2016 05:15 -1,6 C 96 % 1012,4 hPa 0,0 l/m 0,0 km/h (0 Bft) W-SW 252 0 min 0,000 mm 0,0 UV-I 0 W/m -2,2 C -1,6 C 0,0 km/h (0 Bft)
08.03.2016 05:20 -1,6 C 96 % 1012,4 hPa 0,0 l/m 0,0 km/h (0 Bft) W-NW 286 0 min 0,000 mm 0,0 UV-I 0 W/m -2,2 C -1,6 C 0,0 km/h (0 Bft)
08.03.2016 05:25 -1,6 C 96 % 1012,4 hPa 0,0 l/m 0,0 km/h (0 Bft) W 276 0 min 0,000 mm 0,0 UV-I 0 W/m -2,2 C -1,6 C 0,0 km/h (0 Bft)
08.03.2016 05:30 -1,5 C 96 % 1012,5 hPa 0,0 l/m 0,0 km/h (0 Bft) W 281 0 min 0,000 mm 0,0 UV-I 0 W/m -2,1 C -1,5 C 0,0 km/h (0 Bft)
08.03.2016 05:35 -1,5 C 96 % 1012,5 hPa 0,0 l/m 0,0 km/h (0 Bft) W 281 0 min 0,000 mm 0,0 UV-I 0 W/m -2,1 C -1,5 C 0,0 km/h (0 Bft)
08.03.2016 05:40 -1,4 C 96 % 1012,5 hPa 0,0 l/m 0,0 km/h (0 Bft) W 281 0 min 0,000 mm 0,0 UV-I 0 W/m -2,0 C -1,4 C 0,0 km/h (0 Bft)
08.03.2016 05:45 -1,4 C 96 % 1012,6 hPa 0,0 l/m 0,0 km/h (0 Bft) W 273 0 min 0,000 mm 0,0 UV-I 0 W/m -2,0 C -1,4 C 0,0 km/h (0 Bft)
08.03.2016 05:50 -1,3 C 96 % 1012,7 hPa 0,0 l/m 0,0 km/h (0 Bft) W-NW 289 0 min 0,000 mm 0,0 UV-I 0 W/m -1,9 C -1,3 C 0,0 km/h (0 Bft)
08.03.2016 05:55 -1,3 C 96 % 1012,6 hPa 0,0 l/m 0,0 km/h (0 Bft) W 280 0 min 0,000 mm 0,0 UV-I 0 W/m -1,9 C -1,3 C 0,0 km/h (0 Bft)
08.03.2016 06:00 -1,3 C 96 % 1012,7 hPa 0,0 l/m 0,0 km/h (0 Bft) NW 312 0 min 0,000 mm 0,0 UV-I 0 W/m -1,9 C -1,3 C 0,0 km/h (0 Bft)
08.03.2016 06:05 -1,3 C 96 % 1012,8 hPa 0,0 l/m 0,0 km/h (0 Bft) NW 306 0 min 0,000 mm 0,0 UV-I 0 W/m -1,9 C -1,3 C 0,0 km/h (0 Bft)
08.03.2016 06:10 -1,2 C 96 % 1012,9 hPa 0,0 l/m 0,0 km/h (0 Bft) W 276 0 min 0,000 mm 0,0 UV-I 0 W/m -1,8 C -1,2 C 0,0 km/h (0 Bft)
08.03.2016 06:15 -1,2 C 96 % 1012,9 hPa 0,0 l/m 0,0 km/h (0 Bft) W 276 0 min 0,000 mm 0,0 UV-I 0 W/m -1,8 C -1,2 C 0,0 km/h (0 Bft)
08.03.2016 06:20 -1,2 C 96 % 1012,9 hPa 0,0 l/m 0,0 km/h (0 Bft) W 276 0 min 0,000 mm 0,0 UV-I 0 W/m -1,8 C -1,2 C 0,0 km/h (0 Bft)
08.03.2016 06:25 -1,1 C 96 % 1012,9 hPa 0,0 l/m 0,0 km/h (0 Bft) W 276 0 min 0,000 mm 0,0 UV-I 0 W/m -1,7 C -1,1 C 0,0 km/h (0 Bft)
08.03.2016 06:30 -1,1 C 96 % 1013,0 hPa 0,0 l/m 0,0 km/h (0 Bft) W 276 0 min 0,000 mm 0,0 UV-I 0 W/m -1,7 C -1,1 C 0,0 km/h (0 Bft)
08.03.2016 06:35 -1,1 C 96 % 1013,1 hPa 0,0 l/m 0,0 km/h (0 Bft) W 276 0 min 0,000 mm 0,0 UV-I 0 W/m -1,7 C -1,1 C 0,0 km/h (0 Bft)
08.03.2016 06:40 -1,1 C 96 % 1013,2 hPa 0,0 l/m 0,0 km/h (0 Bft) W 276 0 min 0,000 mm 0,0 UV-I 0 W/m -1,7 C -1,1 C 0,0 km/h (0 Bft)
08.03.2016 06:45 -1,1 C 96 % 1013,2 hPa 0,0 l/m 0,0 km/h (0 Bft) W 276 0 min 0,000 mm 0,0 UV-I 0 W/m -1,7 C -1,1 C 0,0 km/h (0 Bft)
08.03.2016 06:50 -1,1 C 96 % 1013,3 hPa 0,0 l/m 0,0 km/h (0 Bft) W 276 0 min 0,000 mm 0,0 UV-I 0 W/m -1,7 C -1,1 C 0,0 km/h (0 Bft)
08.03.2016 06:55 -1,1 C 96 % 1013,4 hPa 0,0 l/m 0,0 km/h (0 Bft) W 276 0 min 0,000 mm 0,0 UV-I 0 W/m -1,7 C -1,1 C 0,0 km/h (0 Bft)
08.03.2016 07:00 -1,1 C 96 % 1013,5 hPa 0,0 l/m 0,0 km/h (0 Bft) W-NW 295 0 min 0,000 mm 0,0 UV-I 0 W/m -1,7 C -1,1 C 0,0 km/h (0 Bft)
08.03.2016 07:05 -1,1 C 95 % 1013,5 hPa 0,0 l/m 0,0 km/h (0 Bft) W-NW 294 0 min 0,000 mm 0,0 UV-I 0 W/m -1,8 C -1,1 C 0,0 km/h (0 Bft)
08.03.2016 07:10 -1,0 C 96 % 1013,6 hPa 0,0 l/m 0,0 km/h (0 Bft) W-NW 295 0 min 0,000 mm 0,0 UV-I 1 W/m -1,6 C -1,0 C 0,0 km/h (0 Bft)
08.03.2016 07:15 -1,0 C 95 % 1013,6 hPa 0,0 l/m 0,0 km/h (0 Bft) W-NW 295 0 min 0,000 mm 0,0 UV-I 5 W/m -1,7 C -1,0 C 0,0 km/h (0 Bft)
08.03.2016 07:20 -0,9 C 96 % 1013,6 hPa 0,0 l/m 0,0 km/h (0 Bft) W-NW 294 0 min 0,000 mm 0,0 UV-I 8 W/m -1,5 C -0,9 C 0,0 km/h (0 Bft)
08.03.2016 07:25 -0,9 C 96 % 1013,7 hPa 0,0 l/m 0,0 km/h (0 Bft) W-NW 295 0 min 0,000 mm 0,0 UV-I 12 W/m -1,5 C -0,9 C 0,0 km/h (0 Bft)
08.03.2016 07:30 -0,9 C 96 % 1013,8 hPa 0,0 l/m 0,0 km/h (0 Bft) W-NW 295 0 min 0,000 mm 0,0 UV-I 15 W/m -1,5 C -0,9 C 0,0 km/h (0 Bft)
08.03.2016 07:35 -0,9 C 96 % 1014,0 hPa 0,0 l/m 0,0 km/h (0 Bft) W-NW 295 0 min 0,000 mm 0,0 UV-I 19 W/m -1,5 C -0,9 C 0,0 km/h (0 Bft)
08.03.2016 07:40 -0,9 C 96 % 1014,0 hPa 0,0 l/m 0,0 km/h (0 Bft) W-NW 294 0 min 0,000 mm 0,0 UV-I 25 W/m -1,5 C -0,9 C 0,0 km/h (0 Bft)
08.03.2016 07:45 -0,9 C 96 % 1014,1 hPa 0,0 l/m 0,0 km/h (0 Bft) W-NW 295 0 min 0,000 mm 0,0 UV-I 28 W/m -1,5 C -0,9 C 0,0 km/h (0 Bft)
08.03.2016 07:50 -0,8 C 96 % 1014,1 hPa 0,0 l/m 0,0 km/h (0 Bft) W-NW 295 0 min 0,000 mm 0,0 UV-I 33 W/m -1,4 C -0,8 C 0,0 km/h (0 Bft)
08.03.2016 07:55 -0,8 C 95 % 1014,2 hPa 0,0 l/m 0,0 km/h (0 Bft) W-NW 295 0 min 0,000 mm 0,0 UV-I 38 W/m -1,5 C -0,8 C 0,0 km/h (0 Bft)
08.03.2016 08:00 -0,8 C 95 % 1014,3 hPa 0,0 l/m 0,0 km/h (0 Bft) W-NW 294 0 min 0,000 mm 0,0 UV-I 47 W/m -1,5 C -0,8 C 0,0 km/h (0 Bft)
08.03.2016 08:05 -0,7 C 96 % 1014,4 hPa 0,0 l/m 0,0 km/h (0 Bft) W-NW 295 0 min 0,000 mm 0,0 UV-I 53 W/m -1,3 C -0,7 C 0,0 km/h (0 Bft)
08.03.2016 08:10 -0,6 C 96 % 1014,4 hPa 0,0 l/m 0,0 km/h (0 Bft) W-NW 294 0 min 0,000 mm 0,0 UV-I 54 W/m -1,2 C -0,6 C 0,0 km/h (0 Bft)
08.03.2016 08:15 -0,6 C 96 % 1014,5 hPa 0,0 l/m 0,0 km/h (0 Bft) W-NW 294 0 min 0,000 mm 0,0 UV-I 60 W/m -1,2 C -0,6 C 0,0 km/h (0 Bft)
08.03.2016 08:20 -0,5 C 96 % 1014,4 hPa 0,0 l/m 0,0 km/h (0 Bft) W-NW 294 0 min 0,000 mm 0,0 UV-I 63 W/m -1,1 C -0,5 C 0,0 km/h (0 Bft)
08.03.2016 08:25 -0,4 C 96 % 1014,5 hPa 0,0 l/m 0,0 km/h (0 Bft) W-NW 294 0 min 0,000 mm 0,0 UV-I 71 W/m -1,0 C -0,4 C 0,0 km/h (0 Bft)
08.03.2016 08:30 -0,4 C 96 % 1014,6 hPa 0,0 l/m 0,0 km/h (0 Bft) W-NW 294 0 min 0,000 mm 0,0 UV-I 80 W/m -1,0 C -0,4 C 0,0 km/h (0 Bft)
08.03.2016 08:35 -0,3 C 96 % 1014,6 hPa 0,0 l/m 0,0 km/h (0 Bft) W-NW 294 0 min 0,000 mm 0,0 UV-I 82 W/m -0,9 C -0,3 C 0,0 km/h (0 Bft)
08.03.2016 08:40 -0,3 C 96 % 1014,6 hPa 0,0 l/m 0,0 km/h (0 Bft) W-SW 254 0 min 0,000 mm 0,0 UV-I 86 W/m -0,9 C -0,3 C 0,0 km/h (0 Bft)
08.03.2016 08:45 -0,3 C 96 % 1014,7 hPa 0,0 l/m 0,0 km/h (0 Bft) W-SW 254 0 min 0,000 mm 0,5 UV-I 82 W/m -0,9 C -0,3 C 0,0 km/h (0 Bft)
08.03.2016 08:50 -0,2 C 96 % 1014,8 hPa 0,0 l/m 0,0 km/h (0 Bft) W 279 0 min 0,000 mm 0,5 UV-I 78 W/m -0,8 C -0,2 C 0,0 km/h (0 Bft)
08.03.2016 08:55 -0,2 C 96 % 1014,9 hPa 0,0 l/m 0,0 km/h (0 Bft) W 266 0 min 0,000 mm 0,5 UV-I 118 W/m -0,8 C -0,2 C 0,0 km/h (0 Bft)
08.03.2016 09:00 -0,1 C 96 % 1015,0 hPa 0,0 l/m 0,0 km/h (0 Bft) SW 234 0 min 0,000 mm 0,6 UV-I 162 W/m -0,7 C -0,1 C 0,0 km/h (0 Bft)
08.03.2016 09:05 0,3 C 96 % 1015,0 hPa 0,0 l/m 0,0 km/h (0 Bft) SW 234 5 min 0,025 mm 0,6 UV-I 197 W/m -0,3 C 0,3 C 1,6 km/h (1 Bft)
08.03.2016 09:10 0,3 C 95 % 1015,0 hPa 0,0 l/m 0,0 km/h (0 Bft) W-SW 242 0 min 0,000 mm 0,6 UV-I 150 W/m -0,4 C 0,3 C 0,0 km/h (0 Bft)
08.03.2016 09:15 0,7 C 96 % 1015,1 hPa 0,0 l/m 0,0 km/h (0 Bft) W-NW 287 5 min 0,000 mm 0,7 UV-I 209 W/m 0,1 C 0,7 C 0,0 km/h (0 Bft)
08.03.2016 09:20 0,9 C 95 % 1015,1 hPa 0,0 l/m 0,1 km/h (0 Bft) W-NW 294 5 min 0,000 mm 0,7 UV-I 251 W/m 0,2 C 0,9 C 3,2 km/h (1 Bft)
08.03.2016 09:25 1,1 C 94 % 1015,2 hPa 0,0 l/m 1,8 km/h (1 Bft) W 264 5 min 0,000 mm 0,7 UV-I 276 W/m 0,2 C 1,1 C 4,8 km/h (1 Bft)
08.03.2016 09:30 1,3 C 94 % 1015,2 hPa 0,0 l/m 1,5 km/h (1 Bft) W-SW 238 5 min 0,000 mm 0,8 UV-I 294 W/m 0,4 C 1,3 C 6,4 km/h (2 Bft)
08.03.2016 09:35 1,7 C 93 % 1015,2 hPa 0,0 l/m 0,3 km/h (0 Bft) W 281 5 min 0,000 mm 0,8 UV-I 277 W/m 0,7 C 1,7 C 3,2 km/h (1 Bft)
08.03.2016 09:40 2,2 C 92 % 1015,2 hPa 0,0 l/m 0,0 km/h (0 Bft) W 281 5 min 0,000 mm 0,9 UV-I 295 W/m 1,0 C 2,2 C 0,0 km/h (0 Bft)
08.03.2016 09:45 2,5 C 89 % 1015,3 hPa 0,0 l/m 0,2 km/h (0 Bft) W-SW 254 5 min 0,000 mm 1,0 UV-I 308 W/m 0,9 C 2,5 C 3,2 km/h (1 Bft)
08.03.2016 09:50 2,4 C 90 % 1015,3 hPa 0,0 l/m 1,4 km/h (1 Bft) S-SW 196 5 min 0,000 mm 1,0 UV-I 369 W/m 0,9 C 2,4 C 8,0 km/h (2 Bft)
08.03.2016 09:55 2,2 C 89 % 1015,3 hPa 0,0 l/m 2,8 km/h (1 Bft) W-SW 252 5 min 0,000 mm 1,1 UV-I 330 W/m 0,6 C 2,2 C 8,0 km/h (2 Bft)
08.03.2016 10:00 2,6 C 90 % 1015,4 hPa 0,0 l/m 2,1 km/h (1 Bft) S-SW 198 5 min 0,000 mm 1,1 UV-I 400 W/m 1,1 C 2,6 C 6,4 km/h (2 Bft)
08.03.2016 10:05 2,9 C 89 % 1015,4 hPa 0,0 l/m 1,3 km/h (1 Bft) SW 215 5 min 0,102 mm 1,2 UV-I 385 W/m 1,3 C 2,9 C 4,8 km/h (1 Bft)
08.03.2016 10:10 3,3 C 88 % 1015,3 hPa 0,0 l/m 1,0 km/h (0 Bft) SW 218 5 min 0,000 mm 1,2 UV-I 400 W/m 1,5 C 3,3 C 6,4 km/h (2 Bft)
08.03.2016 10:15 3,7 C 86 % 1015,4 hPa 0,0 l/m 0,3 km/h (0 Bft) SW 227 5 min 0,000 mm 1,3 UV-I 424 W/m 1,6 C 3,7 C 4,8 km/h (1 Bft)
08.03.2016 10:20 3,7 C 84 % 1015,4 hPa 0,0 l/m 1,0 km/h (0 Bft) SW 225 5 min 0,000 mm 1,3 UV-I 447 W/m 1,3 C 3,7 C 6,4 km/h (2 Bft)
08.03.2016 10:25 4,3 C 85 % 1015,4 hPa 0,0 l/m 1,9 km/h (1 Bft) S 191 5 min 0,000 mm 1,4 UV-I 485 W/m 2,0 C 4,3 C 9,7 km/h (2 Bft)
08.03.2016 10:30 4,3 C 82 % 1015,5 hPa 0,0 l/m 1,7 km/h (1 Bft) S 184 5 min 0,000 mm 1,4 UV-I 515 W/m 1,5 C 4,3 C 6,4 km/h (2 Bft)
08.03.2016 10:35 3,7 C 84 % 1015,5 hPa 0,0 l/m 1,0 km/h (0 Bft) SW 228 5 min 0,000 mm 1,4 UV-I 507 W/m 1,3 C 3,7 C 6,4 km/h (2 Bft)
08.03.2016 10:40 4,8 C 83 % 1015,5 hPa 0,0 l/m 0,4 km/h (0 Bft) S-SW 192 5 min 0,000 mm 1,5 UV-I 549 W/m 2,2 C 4,8 C 3,2 km/h (1 Bft)
08.03.2016 10:45 4,6 C 82 % 1015,6 hPa 0,0 l/m 1,6 km/h (1 Bft) W-NW 296 5 min 0,000 mm 1,4 UV-I 403 W/m 1,8 C 4,6 C 4,8 km/h (1 Bft)
08.03.2016 10:50 4,2 C 81 % 1015,6 hPa 0,0 l/m 1,2 km/h (1 Bft) NW 318 5 min 0,000 mm 1,5 UV-I 355 W/m 1,2 C 4,2 C 4,8 km/h (1 Bft)
08.03.2016 10:55 4,8 C 79 % 1015,6 hPa 0,0 l/m 1,0 km/h (0 Bft) NW 304 5 min 0,000 mm 1,6 UV-I 494 W/m 1,5 C 4,8 C 6,4 km/h (2 Bft)
08.03.2016 11:00 5,3 C 77 % 1015,6 hPa 0,0 l/m 0,9 km/h (0 Bft) W 277 5 min 0,000 mm 1,5 UV-I 413 W/m 1,6 C 5,3 C 6,4 km/h (2 Bft)
08.03.2016 11:05 4,4 C 80 % 1015,6 hPa 0,0 l/m 1,0 km/h (0 Bft) W 277 0 min 0,178 mm 1,6 UV-I 260 W/m 1,3 C 4,4 C 6,4 km/h (2 Bft)
08.03.2016 11:10 4,7 C 77 % 1015,7 hPa 0,0 l/m 3,3 km/h (1 Bft) W-NW 294 5 min 0,000 mm 1,8 UV-I 522 W/m 1,0 C 4,7 C 9,7 km/h (2 Bft)
08.03.2016 11:15 5,4 C 78 % 1015,7 hPa 0,0 l/m 0,1 km/h (0 Bft) W-SW 254 5 min 0,000 mm 1,7 UV-I 513 W/m 1,9 C 5,4 C 1,6 km/h (1 Bft)
08.03.2016 11:20 4,9 C 73 % 1015,6 hPa 0,0 l/m 2,9 km/h (1 Bft) W 277 5 min 0,000 mm 1,7 UV-I 409 W/m 0,5 C 4,9 C 12,9 km/h (3 Bft)
08.03.2016 11:25 4,7 C 78 % 1015,7 hPa 0,0 l/m 1,1 km/h (1 Bft) NW 305 0 min 0,000 mm 1,6 UV-I 264 W/m 1,2 C 4,7 C 8,0 km/h (2 Bft)
08.03.2016 11:30 4,9 C 77 % 1015,8 hPa 0,0 l/m 0,8 km/h (0 Bft) W-NW 284 0 min 0,000 mm 1,5 UV-I 215 W/m 1,2 C 4,9 C 6,4 km/h (2 Bft)
08.03.2016 11:35 4,5 C 75 % 1015,8 hPa 0,0 l/m 0,9 km/h (0 Bft) W-SW 238 0 min 0,000 mm 1,5 UV-I 191 W/m 0,5 C 4,5 C 4,8 km/h (1 Bft)
08.03.2016 11:40 4,3 C 77 % 1015,8 hPa 0,0 l/m 1,0 km/h (0 Bft) S 186 5 min 0,000 mm 2,0 UV-I 433 W/m 0,6 C 4,3 C 6,4 km/h (2 Bft)
08.03.2016 11:45 5,4 C 76 % 1015,9 hPa 0,0 l/m 0,1 km/h (0 Bft) SW 227 5 min 0,000 mm 1,9 UV-I 664 W/m 1,5 C 5,4 C 1,6 km/h (1 Bft)
08.03.2016 11:50 5,9 C 75 % 1015,9 hPa 0,0 l/m 1,1 km/h (1 Bft) W-NW 290 5 min 0,000 mm 1,7 UV-I 475 W/m 1,8 C 5,9 C 8,0 km/h (2 Bft)
08.03.2016 11:55 5,9 C 69 % 1015,9 hPa 0,0 l/m 1,5 km/h (1 Bft) S-SW 205 5 min 0,000 mm 1,8 UV-I 625 W/m 0,7 C 5,9 C 9,7 km/h (2 Bft)
08.03.2016 12:00 5,8 C 70 % 1015,9 hPa 0,0 l/m 1,1 km/h (1 Bft) NW 306 5 min 0,000 mm 1,6 UV-I 319 W/m 0,8 C 5,8 C 9,7 km/h (2 Bft)
08.03.2016 12:05 6,2 C 69 % 1015,9 hPa 0,0 l/m 1,1 km/h (1 Bft) SW 222 5 min 0,178 mm 2,1 UV-I 617 W/m 0,9 C 6,2 C 9,7 km/h (2 Bft)
08.03.2016 12:10 5,7 C 66 % 1015,9 hPa 0,0 l/m 1,4 km/h (1 Bft) S 185 5 min 0,000 mm 1,7 UV-I 316 W/m -0,1 C 5,7 C 8,0 km/h (2 Bft)
08.03.2016 12:15 5,7 C 66 % 1016,0 hPa 0,0 l/m 0,7 km/h (0 Bft) SW 236 5 min 0,000 mm 1,5 UV-I 441 W/m -0,1 C 5,7 C 6,4 km/h (2 Bft)
08.03.2016 12:20 5,4 C 65 % 1016,0 hPa 0,0 l/m 1,9 km/h (1 Bft) W 259 0 min 0,000 mm 1,3 UV-I 205 W/m -0,6 C 5,4 C 8,0 km/h (2 Bft)
08.03.2016 12:25 4,8 C 65 % 1016,1 hPa 0,0 l/m 2,6 km/h (1 Bft) SW 232 0 min 0,000 mm 1,2 UV-I 192 W/m -1,2 C 4,8 C 8,0 km/h (2 Bft)
08.03.2016 12:30 4,7 C 67 % 1016,0 hPa 0,0 l/m 1,6 km/h (1 Bft) S-SW 210 0 min 0,000 mm 0,9 UV-I 171 W/m -0,9 C 4,7 C 9,7 km/h (2 Bft)
08.03.2016 12:35 4,8 C 71 % 1016,1 hPa 0,0 l/m 0,3 km/h (0 Bft) W-SW 248 0 min 0,000 mm 0,9 UV-I 169 W/m -0,0 C 4,8 C 4,8 km/h (1 Bft)
08.03.2016 12:40 4,8 C 73 % 1016,1 hPa 0,0 l/m 2,8 km/h (1 Bft) W 268 0 min 0,000 mm 0,8 UV-I 167 W/m 0,4 C 4,8 C 12,9 km/h (3 Bft)
08.03.2016 12:45 4,6 C 77 % 1016,2 hPa 0,0 l/m 4,2 km/h (1 Bft) W-NW 293 0 min 0,000 mm 0,9 UV-I 213 W/m 0,9 C 4,6 C 12,9 km/h (3 Bft)
08.03.2016 12:50 4,7 C 76 % 1016,2 hPa 0,0 l/m 1,4 km/h (1 Bft) NW 304 0 min 0,000 mm 0,8 UV-I 205 W/m 0,8 C 4,7 C 8,0 km/h (2 Bft)
08.03.2016 12:55 4,7 C 74 % 1016,3 hPa 0,0 l/m 3,2 km/h (1 Bft) NW 308 0 min 0,000 mm 0,9 UV-I 173 W/m 0,5 C 4,7 C 9,7 km/h (2 Bft)
08.03.2016 13:00 4,5 C 75 % 1016,3 hPa 0,0 l/m 2,1 km/h (1 Bft) NW 313 0 min 0,000 mm 1,2 UV-I 210 W/m 0,5 C 4,5 C 9,7 km/h (2 Bft)
08.03.2016 13:05 4,4 C 76 % 1016,2 hPa 0,0 l/m 1,1 km/h (1 Bft) W 277 0 min 0,101 mm 1,6 UV-I 279 W/m 0,5 C 4,4 C 6,4 km/h (2 Bft)
08.03.2016 13:10 5,1 C 76 % 1016,2 hPa 0,0 l/m 0,3 km/h (0 Bft) W 281 5 min 0,000 mm 1,8 UV-I 368 W/m 1,2 C 5,1 C 4,8 km/h (1 Bft)
08.03.2016 13:15 5,6 C 76 % 1016,1 hPa 0,0 l/m 1,4 km/h (1 Bft) W-SW 244 5 min 0,000 mm 2,1 UV-I 527 W/m 1,7 C 5,6 C 6,4 km/h (2 Bft)
08.03.2016 13:20 6,1 C 72 % 1016,1 hPa 0,0 l/m 2,5 km/h (1 Bft) S 178 5 min 0,000 mm 2,2 UV-I 649 W/m 1,4 C 6,1 C 11,3 km/h (2 Bft)
08.03.2016 13:25 6,8 C 70 % 1016,1 hPa 0,0 l/m 1,1 km/h (1 Bft) S-SW 200 5 min 0,000 mm 2,1 UV-I 692 W/m 1,7 C 6,8 C 8,0 km/h (2 Bft)
08.03.2016 13:30 6,4 C 65 % 1016,1 hPa 0,0 l/m 0,4 km/h (0 Bft) S 173 5 min 0,000 mm 1,6 UV-I 552 W/m 0,3 C 6,4 C 3,2 km/h (1 Bft)
08.03.2016 13:35 6,1 C 68 % 1016,2 hPa 0,0 l/m 2,2 km/h (1 Bft) W-NW 300 0 min 0,000 mm 1,1 UV-I 246 W/m 0,6 C 6,1 C 12,9 km/h (3 Bft)
08.03.2016 13:40 5,4 C 72 % 1016,2 hPa 0,0 l/m 1,6 km/h (1 Bft) W 277 0 min 0,000 mm 1,0 UV-I 195 W/m 0,8 C 5,4 C 4,8 km/h (1 Bft)
08.03.2016 13:45 6,2 C 74 % 1016,2 hPa 0,0 l/m 1,8 km/h (1 Bft) NW 315 5 min 0,000 mm 1,6 UV-I 616 W/m 1,9 C 6,2 C 6,4 km/h (2 Bft)
08.03.2016 13:50 7,1 C 69 % 1016,1 hPa 0,0 l/m 1,3 km/h (1 Bft) S-SW 213 5 min 0,000 mm 1,6 UV-I 655 W/m 1,8 C 7,1 C 8,0 km/h (2 Bft)
08.03.2016 13:55 6,6 C 67 % 1016,1 hPa 0,0 l/m 1,7 km/h (1 Bft) S-SW 213 0 min 0,000 mm 1,5 UV-I 284 W/m 0,9 C 6,6 C 8,0 km/h (2 Bft)
08.03.2016 14:00 6,1 C 67 % 1016,1 hPa 0,0 l/m 3,4 km/h (1 Bft) SW 225 0 min 0,000 mm 1,4 UV-I 255 W/m 0,4 C 6,1 C 11,3 km/h (2 Bft)
08.03.2016 14:05 5,5 C 65 % 1016,1 hPa 0,0 l/m 6,2 km/h (2 Bft) W-NW 285 0 min 0,203 mm 1,3 UV-I 238 W/m -0,5 C 5,5 C 16,1 km/h (3 Bft)
08.03.2016 14:10 5,3 C 69 % 1016,2 hPa 0,0 l/m 5,6 km/h (1 Bft) SW 236 0 min 0,000 mm 1,1 UV-I 178 W/m 0,1 C 5,3 C 11,3 km/h (2 Bft)
08.03.2016 14:15 4,9 C 69 % 1016,2 hPa 0,0 l/m 6,2 km/h (2 Bft) W-SW 246 0 min 0,000 mm 1,0 UV-I 167 W/m -0,3 C 4,9 C 16,1 km/h (3 Bft)
08.03.2016 14:20 4,8 C 72 % 1016,2 hPa 0,0 l/m 4,3 km/h (1 Bft) W 266 5 min 0,000 mm 1,1 UV-I 283 W/m 0,2 C 4,8 C 9,7 km/h (2 Bft)
08.03.2016 14:25 5,0 C 69 % 1016,2 hPa 0,0 l/m 4,1 km/h (1 Bft) N-NW 347 0 min 0,000 mm 1,1 UV-I 278 W/m -0,2 C 5,0 C 9,7 km/h (2 Bft)
08.03.2016 14:30 5,9 C 67 % 1016,2 hPa 0,0 l/m 2,0 km/h (1 Bft) NW 321 5 min 0,000 mm 1,2 UV-I 572 W/m 0,3 C 5,9 C 11,3 km/h (2 Bft)
08.03.2016 14:35 5,3 C 68 % 1016,3 hPa 0,0 l/m 4,2 km/h (1 Bft) W-NW 300 5 min 0,000 mm 1,1 UV-I 298 W/m -0,1 C 5,3 C 11,3 km/h (2 Bft)
08.03.2016 14:40 5,1 C 70 % 1016,2 hPa 0,0 l/m 2,6 km/h (1 Bft) W-NW 290 5 min 0,000 mm 1,2 UV-I 298 W/m 0,1 C 5,1 C 9,7 km/h (2 Bft)
08.03.2016 14:45 5,3 C 70 % 1016,2 hPa 0,0 l/m 3,2 km/h (1 Bft) W-SW 242 0 min 0,000 mm 1,2 UV-I 237 W/m 0,3 C 5,3 C 12,9 km/h (3 Bft)
08.03.2016 14:50 5,9 C 67 % 1016,2 hPa 0,0 l/m 2,2 km/h (1 Bft) S 182 5 min 0,000 mm 1,4 UV-I 429 W/m 0,3 C 5,9 C 9,7 km/h (2 Bft)
08.03.2016 14:55 6,9 C 67 % 1016,1 hPa 0,0 l/m 0,8 km/h (0 Bft) W-SW 241 5 min 0,000 mm 1,4 UV-I 560 W/m 1,2 C 6,9 C 4,8 km/h (1 Bft)
08.03.2016 15:00 6,6 C 63 % 1016,1 hPa 0,0 l/m 5,0 km/h (1 Bft) W-SW 245 5 min 0,000 mm 1,2 UV-I 425 W/m 0,1 C 6,6 C 14,5 km/h (3 Bft)
08.03.2016 15:05 5,9 C 64 % 1016,2 hPa 0,0 l/m 4,4 km/h (1 Bft) W-SW 243 0 min 0,153 mm 1,0 UV-I 155 W/m -0,4 C 5,9 C 14,5 km/h (3 Bft)
08.03.2016 15:10 5,6 C 66 % 1016,3 hPa 0,0 l/m 4,0 km/h (1 Bft) NW 317 0 min 0,000 mm 1,0 UV-I 127 W/m -0,2 C 5,6 C 8,0 km/h (2 Bft)
08.03.2016 15:15 5,6 C 65 % 1016,3 hPa 0,0 l/m 2,2 km/h (1 Bft) NW 320 0 min 0,000 mm 1,0 UV-I 129 W/m -0,4 C 5,6 C 9,7 km/h (2 Bft)
08.03.2016 15:20 5,9 C 65 % 1016,3 hPa 0,0 l/m 0,3 km/h (0 Bft) NW 304 0 min 0,000 mm 0,9 UV-I 195 W/m -0,2 C 5,9 C 4,8 km/h (1 Bft)
08.03.2016 15:25 6,1 C 64 % 1016,3 hPa 0,0 l/m 1,4 km/h (1 Bft) N-NW 331 5 min 0,000 mm 1,0 UV-I 371 W/m -0,2 C 6,1 C 8,0 km/h (2 Bft)
08.03.2016 15:30 6,3 C 63 % 1016,3 hPa 0,0 l/m 0,9 km/h (0 Bft) W-NW 294 5 min 0,000 mm 1,1 UV-I 381 W/m -0,2 C 6,3 C 8,0 km/h (2 Bft)
08.03.2016 15:35 6,7 C 60 % 1016,3 hPa 0,0 l/m 1,9 km/h (1 Bft) W 273 5 min 0,000 mm 1,1 UV-I 393 W/m -0,5 C 6,7 C 9,7 km/h (2 Bft)
08.03.2016 15:40 6,7 C 59 % 1016,2 hPa 0,0 l/m 1,8 km/h (1 Bft) W-NW 302 5 min 0,000 mm 0,9 UV-I 276 W/m -0,7 C 6,7 C 9,7 km/h (2 Bft)
08.03.2016 15:45 6,1 C 61 % 1016,2 hPa 0,0 l/m 0,5 km/h (0 Bft) S 181 0 min 0,000 mm 0,8 UV-I 123 W/m -0,8 C 6,1 C 6,4 km/h (2 Bft)
08.03.2016 15:50 5,6 C 61 % 1016,2 hPa 0,0 l/m 3,6 km/h (1 Bft) W 280 0 min 0,000 mm 0,8 UV-I 89 W/m -1,3 C 5,6 C 11,3 km/h (2 Bft)
08.03.2016 15:55 5,3 C 64 % 1016,2 hPa 0,0 l/m 0,9 km/h (0 Bft) S-SW 204 0 min 0,000 mm 0,7 UV-I 69 W/m -0,9 C 5,3 C 4,8 km/h (1 Bft)
08.03.2016 16:00 5,2 C 65 % 1016,3 hPa 0,0 l/m 0,1 km/h (0 Bft) W-SW 238 0 min 0,000 mm 0,7 UV-I 80 W/m -0,8 C 5,2 C 1,6 km/h (1 Bft)
08.03.2016 16:05 5,3 C 64 % 1016,2 hPa 0,0 l/m 0,0 km/h (0 Bft) S-SW 198 0 min 0,101 mm 0,7 UV-I 89 W/m -0,9 C 5,3 C 0,0 km/h (0 Bft)
08.03.2016 16:10 5,6 C 63 % 1016,3 hPa 0,0 l/m 0,0 km/h (0 Bft) S-SO 151 0 min 0,000 mm 0,7 UV-I 91 W/m -0,9 C 5,6 C 0,0 km/h (0 Bft)
08.03.2016 16:15 5,5 C 62 % 1016,3 hPa 0,0 l/m 0,0 km/h (0 Bft) S 181 0 min 0,000 mm 0,6 UV-I 93 W/m -1,2 C 5,5 C 1,6 km/h (1 Bft)
08.03.2016 16:20 5,8 C 62 % 1016,3 hPa 0,0 l/m 0,0 km/h (0 Bft) S 181 0 min 0,000 mm 0,6 UV-I 116 W/m -0,9 C 5,8 C 0,0 km/h (0 Bft)
08.03.2016 16:25 5,9 C 63 % 1016,2 hPa 0,0 l/m 0,0 km/h (0 Bft) S 181 0 min 0,000 mm 0,5 UV-I 131 W/m -0,6 C 5,9 C 0,0 km/h (0 Bft)
08.03.2016 16:30 6,4 C 61 % 1016,3 hPa 0,0 l/m 0,0 km/h (0 Bft) SW 219 5 min 0,000 mm 0,5 UV-I 191 W/m -0,6 C 6,4 C 0,0 km/h (0 Bft)
08.03.2016 16:35 6,9 C 57 % 1016,2 hPa 0,0 l/m 0,0 km/h (0 Bft) SW 219 5 min 0,000 mm 0,3 UV-I 237 W/m -1,0 C 6,9 C 0,0 km/h (0 Bft)
08.03.2016 16:40 7,0 C 59 % 1016,3 hPa 0,0 l/m 0,2 km/h (0 Bft) W-NW 302 5 min 0,000 mm 0,0 UV-I 231 W/m -0,5 C 7,0 C 6,4 km/h (2 Bft)
08.03.2016 16:45 7,0 C 56 % 1016,3 hPa 0,0 l/m 1,0 km/h (0 Bft) NW 326 0 min 0,000 mm 0,0 UV-I 129 W/m -1,2 C 7,0 C 9,7 km/h (2 Bft)
08.03.2016 16:50 6,6 C 59 % 1016,3 hPa 0,0 l/m 1,8 km/h (1 Bft) W-NW 290 0 min 0,000 mm 0,0 UV-I 83 W/m -0,8 C 6,6 C 8,0 km/h (2 Bft)
08.03.2016 16:55 6,3 C 60 % 1016,3 hPa 0,0 l/m 0,6 km/h (0 Bft) W-NW 302 0 min 0,000 mm 0,0 UV-I 81 W/m -0,9 C 6,3 C 4,8 km/h (1 Bft)
08.03.2016 17:00 5,9 C 60 % 1016,4 hPa 0,0 l/m 0,9 km/h (0 Bft) W-NW 286 0 min 0,000 mm 0,0 UV-I 87 W/m -1,3 C 5,9 C 4,8 km/h (1 Bft)
08.03.2016 17:05 5,6 C 61 % 1016,5 hPa 0,0 l/m 1,5 km/h (1 Bft) W-NW 294 0 min 0,051 mm 0,0 UV-I 77 W/m -1,3 C 5,6 C 4,8 km/h (1 Bft)
08.03.2016 17:10 5,4 C 63 % 1016,5 hPa 0,0 l/m 0,1 km/h (0 Bft) NW 304 0 min 0,000 mm 0,0 UV-I 57 W/m -1,1 C 5,4 C 3,2 km/h (1 Bft)
08.03.2016 17:15 5,3 C 63 % 1016,6 hPa 0,0 l/m 0,1 km/h (0 Bft) W-NW 297 0 min 0,000 mm 0,0 UV-I 41 W/m -1,2 C 5,3 C 3,2 km/h (1 Bft)
08.03.2016 17:20 5,2 C 65 % 1016,5 hPa 0,0 l/m 0,0 km/h (0 Bft) NW 309 0 min 0,000 mm 0,0 UV-I 33 W/m -0,8 C 5,2 C 0,0 km/h (0 Bft)
08.03.2016 17:25 5,1 C 64 % 1016,6 hPa 0,0 l/m 0,2 km/h (0 Bft) NW 306 0 min 0,000 mm 0,0 UV-I 31 W/m -1,1 C 5,1 C 3,2 km/h (1 Bft)
08.03.2016 17:30 4,9 C 65 % 1016,6 hPa 0,0 l/m 0,0 km/h (0 Bft) W-NW 302 0 min 0,000 mm 0,0 UV-I 21 W/m -1,1 C 4,9 C 1,6 km/h (1 Bft)
08.03.2016 17:35 4,8 C 66 % 1016,7 hPa 0,0 l/m 0,2 km/h (0 Bft) NW 313 0 min 0,000 mm 0,0 UV-I 13 W/m -1,0 C 4,8 C 3,2 km/h (1 Bft)
08.03.2016 17:40 4,7 C 66 % 1016,7 hPa 0,0 l/m 1,2 km/h (1 Bft) N-NW 332 0 min 0,000 mm 0,0 UV-I 11 W/m -1,1 C 4,7 C 8,0 km/h (2 Bft)
08.03.2016 17:45 4,6 C 69 % 1016,8 hPa 0,0 l/m 3,1 km/h (1 Bft) W 273 0 min 0,000 mm 0,0 UV-I 12 W/m -0,6 C 4,6 C 9,7 km/h (2 Bft)
08.03.2016 17:50 4,4 C 71 % 1016,9 hPa 0,0 l/m 1,4 km/h (1 Bft) N-NW 330 0 min 0,000 mm 0,0 UV-I 12 W/m -0,4 C 4,4 C 6,4 km/h (2 Bft)
08.03.2016 17:55 4,2 C 73 % 1016,9 hPa 0,0 l/m 0,8 km/h (0 Bft) W-NW 298 0 min 0,000 mm 0,0 UV-I 8 W/m -0,2 C 4,2 C 8,0 km/h (2 Bft)
08.03.2016 18:00 4,1 C 75 % 1017,0 hPa 0,0 l/m 0,2 km/h (0 Bft) NW 306 0 min 0,000 mm 0,0 UV-I 7 W/m 0,1 C 4,1 C 6,4 km/h (2 Bft)
08.03.2016 18:05 4,0 C 75 % 1017,1 hPa 0,0 l/m 0,3 km/h (0 Bft) W-NW 302 0 min 0,026 mm 0,0 UV-I 5 W/m -0,0 C 4,0 C 3,2 km/h (1 Bft)
08.03.2016 18:10 3,9 C 76 % 1017,1 hPa 0,0 l/m 0,0 km/h (0 Bft) W-NW 302 0 min 0,000 mm 0,0 UV-I 2 W/m 0,1 C 3,9 C 0,0 km/h (0 Bft)
08.03.2016 18:15 3,9 C 77 % 1017,1 hPa 0,0 l/m 0,0 km/h (0 Bft) NW 308 0 min 0,000 mm 0,0 UV-I 0 W/m 0,2 C 3,9 C 1,6 km/h (1 Bft)
08.03.2016 18:20 3,8 C 77 % 1017,1 hPa 0,0 l/m 0,0 km/h (0 Bft) NW 308 0 min 0,000 mm 0,0 UV-I 0 W/m 0,1 C 3,8 C 0,0 km/h (0 Bft)
08.03.2016 18:25 3,7 C 77 % 1017,1 hPa 0,0 l/m 0,0 km/h (0 Bft) NW 308 0 min 0,000 mm 0,0 UV-I 0 W/m 0,1 C 3,7 C 0,0 km/h (0 Bft)
08.03.2016 18:30 3,6 C 77 % 1017,1 hPa 0,0 l/m 0,0 km/h (0 Bft) NW 308 0 min 0,000 mm 0,0 UV-I 0 W/m -0,0 C 3,6 C 0,0 km/h (0 Bft)
08.03.2016 18:35 3,4 C 78 % 1017,1 hPa 0,0 l/m 0,0 km/h (0 Bft) NW 308 0 min 0,000 mm 0,0 UV-I 0 W/m -0,1 C 3,4 C 0,0 km/h (0 Bft)
08.03.2016 18:40 3,3 C 78 % 1017,2 hPa 0,0 l/m 0,0 km/h (0 Bft) NW 308 0 min 0,000 mm 0,0 UV-I 0 W/m -0,2 C 3,3 C 0,0 km/h (0 Bft)
08.03.2016 18:45 3,0 C 79 % 1017,3 hPa 0,0 l/m 0,0 km/h (0 Bft) NW 308 0 min 0,000 mm 0,0 UV-I 0 W/m -0,3 C 3,0 C 0,0 km/h (0 Bft)
08.03.2016 18:50 2,8 C 79 % 1017,3 hPa 0,0 l/m 0,0 km/h (0 Bft) NW 308 0 min 0,000 mm 0,0 UV-I 0 W/m -0,5 C 2,8 C 0,0 km/h (0 Bft)
08.03.2016 18:55 2,6 C 80 % 1017,4 hPa 0,0 l/m 0,0 km/h (0 Bft) NW 308 0 min 0,000 mm 0,0 UV-I 0 W/m -0,5 C 2,6 C 0,0 km/h (0 Bft)
08.03.2016 19:00 2,3 C 81 % 1017,4 hPa 0,0 l/m 0,0 km/h (0 Bft) NW 308 0 min 0,000 mm 0,0 UV-I 0 W/m -0,6 C 2,3 C 0,0 km/h (0 Bft)
08.03.2016 19:05 2,1 C 82 % 1017,5 hPa 0,0 l/m 0,0 km/h (0 Bft) NW 308 0 min 0,000 mm 0,0 UV-I 0 W/m -0,6 C 2,1 C 0,0 km/h (0 Bft)
08.03.2016 19:10 2,0 C 82 % 1017,5 hPa 0,0 l/m 0,0 km/h (0 Bft) NW 308 0 min 0,000 mm 0,0 UV-I 0 W/m -0,7 C 2,0 C 0,0 km/h (0 Bft)
08.03.2016 19:15 1,8 C 82 % 1017,5 hPa 0,0 l/m 0,0 km/h (0 Bft) NW 308 0 min 0,000 mm 0,0 UV-I 0 W/m -0,9 C 1,8 C 0,0 km/h (0 Bft)
08.03.2016 19:20 1,7 C 82 % 1017,6 hPa 0,0 l/m 0,0 km/h (0 Bft) NW 308 0 min 0,000 mm 0,0 UV-I 0 W/m -1,0 C 1,7 C 0,0 km/h (0 Bft)
08.03.2016 19:25 1,6 C 83 % 1017,7 hPa 0,0 l/m 0,0 km/h (0 Bft) NW 308 0 min 0,000 mm 0,0 UV-I 0 W/m -1,0 C 1,6 C 0,0 km/h (0 Bft)
08.03.2016 19:30 1,4 C 83 % 1017,7 hPa 0,0 l/m 0,0 km/h (0 Bft) NW 308 0 min 0,000 mm 0,0 UV-I 0 W/m -1,2 C 1,4 C 0,0 km/h (0 Bft)
08.03.2016 19:35 1,3 C 84 % 1017,7 hPa 0,0 l/m 0,0 km/h (0 Bft) NW 308 0 min 0,000 mm 0,0 UV-I 0 W/m -1,1 C 1,3 C 0,0 km/h (0 Bft)
08.03.2016 19:40 1,2 C 84 % 1017,8 hPa 0,0 l/m 0,0 km/h (0 Bft) NW 308 0 min 0,000 mm 0,0 UV-I 0 W/m -1,2 C 1,2 C 0,0 km/h (0 Bft)
08.03.2016 19:45 1,0 C 84 % 1017,8 hPa 0,0 l/m 0,0 km/h (0 Bft) NW 308 0 min 0,000 mm 0,0 UV-I 0 W/m -1,4 C 1,0 C 0,0 km/h (0 Bft)
08.03.2016 19:50 0,8 C 85 % 1017,7 hPa 0,0 l/m 0,0 km/h (0 Bft) NW 308 0 min 0,000 mm 0,0 UV-I 0 W/m -1,4 C 0,8 C 0,0 km/h (0 Bft)
08.03.2016 19:55 0,8 C 86 % 1017,8 hPa 0,0 l/m 0,0 km/h (0 Bft) NW 308 0 min 0,000 mm 0,0 UV-I 0 W/m -1,3 C 0,8 C 0,0 km/h (0 Bft)
08.03.2016 20:00 0,7 C 85 % 1017,7 hPa 0,0 l/m 0,0 km/h (0 Bft) NW 308 0 min 0,000 mm 0,0 UV-I 0 W/m -1,5 C 0,7 C 0,0 km/h (0 Bft)
08.03.2016 20:05 0,5 C 86 % 1017,8 hPa 0,0 l/m 0,0 km/h (0 Bft) NW 308 0 min 0,000 mm 0,0 UV-I 0 W/m -1,6 C 0,5 C 0,0 km/h (0 Bft)
08.03.2016 20:10 0,3 C 86 % 1017,8 hPa 0,0 l/m 0,0 km/h (0 Bft) NW 308 0 min 0,000 mm 0,0 UV-I 0 W/m -1,8 C 0,3 C 0,0 km/h (0 Bft)
08.03.2016 20:15 0,2 C 86 % 1017,8 hPa 0,0 l/m 0,0 km/h (0 Bft) NW 308 0 min 0,000 mm 0,0 UV-I 0 W/m -1,9 C 0,2 C 0,0 km/h (0 Bft)
08.03.2016 20:20 0,1 C 87 % 1017,8 hPa 0,0 l/m 0,0 km/h (0 Bft) NW 308 0 min 0,000 mm 0,0 UV-I 0 W/m -1,8 C 0,1 C 0,0 km/h (0 Bft)
08.03.2016 20:25 0,0 C 87 % 1017,8 hPa 0,0 l/m 0,0 km/h (0 Bft) NW 308 0 min 0,000 mm 0,0 UV-I 0 W/m -1,9 C 0,0 C 0,0 km/h (0 Bft)
08.03.2016 20:30 -0,1 C 87 % 1017,8 hPa 0,0 l/m 0,0 km/h (0 Bft) NW 308 0 min 0,000 mm 0,0 UV-I 0 W/m -2,0 C -0,1 C 0,0 km/h (0 Bft)
08.03.2016 20:35 -0,2 C 88 % 1017,9 hPa 0,0 l/m 0,0 km/h (0 Bft) NW 308 0 min 0,000 mm 0,0 UV-I 0 W/m -1,9 C -0,2 C 0,0 km/h (0 Bft)
08.03.2016 20:40 -0,3 C 89 % 1017,9 hPa 0,0 l/m 0,0 km/h (0 Bft) NW 308 0 min 0,000 mm 0,0 UV-I 0 W/m -1,9 C -0,3 C 0,0 km/h (0 Bft)
08.03.2016 20:45 -0,4 C 89 % 1018,0 hPa 0,0 l/m 0,0 km/h (0 Bft) NW 308 0 min 0,000 mm 0,0 UV-I 0 W/m -2,0 C -0,4 C 0,0 km/h (0 Bft)
08.03.2016 20:50 -0,6 C 89 % 1018,0 hPa 0,0 l/m 0,0 km/h (0 Bft) NW 308 0 min 0,000 mm 0,0 UV-I 0 W/m -2,2 C -0,6 C 0,0 km/h (0 Bft)
08.03.2016 20:55 -0,7 C 90 % 1018,0 hPa 0,0 l/m 0,0 km/h (0 Bft) NW 308 0 min 0,000 mm 0,0 UV-I 0 W/m -2,1 C -0,7 C 0,0 km/h (0 Bft)
08.03.2016 21:00 -0,7 C 90 % 1018,0 hPa 0,0 l/m 0,0 km/h (0 Bft) NW 308 0 min 0,000 mm 0,0 UV-I 0 W/m -2,1 C -0,7 C 0,0 km/h (0 Bft)
08.03.2016 21:05 -0,8 C 91 % 1018,0 hPa 0,0 l/m 0,0 km/h (0 Bft) NW 308 0 min 0,000 mm 0,0 UV-I 0 W/m -2,1 C -0,8 C 0,0 km/h (0 Bft)
08.03.2016 21:10 -0,8 C 91 % 1018,1 hPa 0,0 l/m 0,0 km/h (0 Bft) NW 308 0 min 0,000 mm 0,0 UV-I 0 W/m -2,1 C -0,8 C 0,0 km/h (0 Bft)
08.03.2016 21:15 -0,9 C 91 % 1018,0 hPa 0,0 l/m 0,0 km/h (0 Bft) NW 308 0 min 0,000 mm 0,0 UV-I 0 W/m -2,2 C -0,9 C 0,0 km/h (0 Bft)
08.03.2016 21:20 -1,0 C 91 % 1018,1 hPa 0,0 l/m 0,0 km/h (0 Bft) NW 308 0 min 0,000 mm 0,0 UV-I 0 W/m -2,3 C -1,0 C 0,0 km/h (0 Bft)
08.03.2016 21:25 -1,1 C 91 % 1018,0 hPa 0,0 l/m 0,0 km/h (0 Bft) NW 308 0 min 0,000 mm 0,0 UV-I 0 W/m -2,4 C -1,1 C 0,0 km/h (0 Bft)
08.03.2016 21:30 -1,2 C 91 % 1018,0 hPa 0,0 l/m 0,0 km/h (0 Bft) NW 308 0 min 0,000 mm 0,0 UV-I 0 W/m -2,5 C -1,2 C 0,0 km/h (0 Bft)
08.03.2016 21:35 -1,2 C 91 % 1018,0 hPa 0,0 l/m 0,0 km/h (0 Bft) NW 308 0 min 0,000 mm 0,0 UV-I 0 W/m -2,5 C -1,2 C 0,0 km/h (0 Bft)
08.03.2016 21:40 -1,3 C 91 % 1018,0 hPa 0,0 l/m 0,0 km/h (0 Bft) NW 308 0 min 0,000 mm 0,0 UV-I 0 W/m -2,6 C -1,3 C 0,0 km/h (0 Bft)
08.03.2016 21:45 -1,3 C 91 % 1018,0 hPa 0,0 l/m 0,0 km/h (0 Bft) NW 308 0 min 0,000 mm 0,0 UV-I 0 W/m -2,6 C -1,3 C 0,0 km/h (0 Bft)
08.03.2016 21:50 -1,4 C 91 % 1017,9 hPa 0,0 l/m 0,0 km/h (0 Bft) NW 308 0 min 0,000 mm 0,0 UV-I 0 W/m -2,7 C -1,4 C 0,0 km/h (0 Bft)
08.03.2016 21:55 -1,4 C 91 % 1017,9 hPa 0,0 l/m 0,0 km/h (0 Bft) NW 308 0 min 0,000 mm 0,0 UV-I 0 W/m -2,7 C -1,4 C 0,0 km/h (0 Bft)
08.03.2016 22:00 -1,6 C 91 % 1017,9 hPa 0,0 l/m 0,0 km/h (0 Bft) NW 308 0 min 0,000 mm 0,0 UV-I 0 W/m -2,9 C -1,6 C 0,0 km/h (0 Bft)
08.03.2016 22:05 -1,7 C 91 % 1017,8 hPa 0,0 l/m 0,0 km/h (0 Bft) NW 308 0 min 0,000 mm 0,0 UV-I 0 W/m -3,0 C -1,7 C 0,0 km/h (0 Bft)
08.03.2016 22:10 -1,7 C 91 % 1017,8 hPa 0,0 l/m 0,0 km/h (0 Bft) NW 308 0 min 0,000 mm 0,0 UV-I 0 W/m -3,0 C -1,7 C 0,0 km/h (0 Bft)
08.03.2016 22:15 -1,8 C 92 % 1017,7 hPa 0,0 l/m 0,0 km/h (0 Bft) NW 308 0 min 0,000 mm 0,0 UV-I 0 W/m -2,9 C -1,8 C 0,0 km/h (0 Bft)
08.03.2016 22:20 -1,8 C 92 % 1017,7 hPa 0,0 l/m 0,0 km/h (0 Bft) NW 308 0 min 0,000 mm 0,0 UV-I 0 W/m -2,9 C -1,8 C 0,0 km/h (0 Bft)
08.03.2016 22:25 -1,8 C 92 % 1017,6 hPa 0,0 l/m 0,0 km/h (0 Bft) NW 308 0 min 0,000 mm 0,0 UV-I 0 W/m -2,9 C -1,8 C 0,0 km/h (0 Bft)
08.03.2016 22:30 -1,9 C 92 % 1017,5 hPa 0,0 l/m 0,0 km/h (0 Bft) NW 308 0 min 0,000 mm 0,0 UV-I 0 W/m -3,0 C -1,9 C 0,0 km/h (0 Bft)
08.03.2016 22:35 -2,0 C 92 % 1017,5 hPa 0,0 l/m 0,0 km/h (0 Bft) NW 308 0 min 0,000 mm 0,0 UV-I 0 W/m -3,1 C -2,0 C 0,0 km/h (0 Bft)
08.03.2016 22:40 -2,1 C 92 % 1017,4 hPa 0,0 l/m 0,0 km/h (0 Bft) NW 308 0 min 0,000 mm 0,0 UV-I 0 W/m -3,2 C -2,1 C 0,0 km/h (0 Bft)
08.03.2016 22:45 -2,1 C 93 % 1017,4 hPa 0,0 l/m 0,0 km/h (0 Bft) NW 308 0 min 0,000 mm 0,0 UV-I 0 W/m -3,1 C -2,1 C 0,0 km/h (0 Bft)
08.03.2016 22:50 -1,9 C 93 % 1017,3 hPa 0,0 l/m 0,0 km/h (0 Bft) NW 308 0 min 0,000 mm 0,0 UV-I 0 W/m -2,9 C -1,9 C 0,0 km/h (0 Bft)
08.03.2016 22:55 -2,0 C 93 % 1017,2 hPa 0,0 l/m 0,0 km/h (0 Bft) NW 308 0 min 0,000 mm 0,0 UV-I 0 W/m -3,0 C -2,0 C 0,0 km/h (0 Bft)
08.03.2016 23:00 -2,1 C 93 % 1017,2 hPa 0,0 l/m 0,0 km/h (0 Bft) NW 308 0 min 0,000 mm 0,0 UV-I 0 W/m -3,1 C -2,1 C 0,0 km/h (0 Bft)
08.03.2016 23:05 -2,1 C 93 % 1017,2 hPa 0,0 l/m 0,0 km/h (0 Bft) NW 308 0 min 0,000 mm 0,0 UV-I 0 W/m -3,1 C -2,1 C 0,0 km/h (0 Bft)
08.03.2016 23:10 -2,2 C 93 % 1017,1 hPa 0,0 l/m 0,0 km/h (0 Bft) NW 308 0 min 0,000 mm 0,0 UV-I 0 W/m -3,2 C -2,2 C 0,0 km/h (0 Bft)
08.03.2016 23:15 -2,3 C 93 % 1017,1 hPa 0,0 l/m 0,0 km/h (0 Bft) NW 308 0 min 0,000 mm 0,0 UV-I 0 W/m -3,3 C -2,3 C 0,0 km/h (0 Bft)
08.03.2016 23:20 -2,3 C 93 % 1017,0 hPa 0,0 l/m 0,0 km/h (0 Bft) NW 308 0 min 0,000 mm 0,0 UV-I 0 W/m -3,3 C -2,3 C 0,0 km/h (0 Bft)
08.03.2016 23:25 -2,3 C 93 % 1016,9 hPa 0,0 l/m 0,0 km/h (0 Bft) NW 308 0 min 0,000 mm 0,0 UV-I 0 W/m -3,3 C -2,3 C 0,0 km/h (0 Bft)
08.03.2016 23:30 -2,4 C 93 % 1016,9 hPa 0,0 l/m 0,0 km/h (0 Bft) NW 308 0 min 0,000 mm 0,0 UV-I 0 W/m -3,4 C -2,4 C 0,0 km/h (0 Bft)
08.03.2016 23:35 -2,5 C 93 % 1016,8 hPa 0,0 l/m 0,0 km/h (0 Bft) NW 308 0 min 0,000 mm 0,0 UV-I 0 W/m -3,5 C -2,5 C 0,0 km/h (0 Bft)
08.03.2016 23:40 -2,6 C 93 % 1016,8 hPa 0,0 l/m 0,0 km/h (0 Bft) NW 308 0 min 0,000 mm 0,0 UV-I 0 W/m -3,6 C -2,6 C 0,0 km/h (0 Bft)
08.03.2016 23:45 -2,7 C 93 % 1016,8 hPa 0,0 l/m 0,0 km/h (0 Bft) NW 308 0 min 0,000 mm 0,0 UV-I 0 W/m -3,7 C -2,7 C 0,0 km/h (0 Bft)
08.03.2016 23:50 -2,7 C 93 % 1016,7 hPa 0,0 l/m 0,0 km/h (0 Bft) NW 308 0 min 0,000 mm 0,0 UV-I 0 W/m -3,7 C -2,7 C 0,0 km/h (0 Bft)
08.03.2016 23:55 -2,7 C 93 % 1016,6 hPa 0,0 l/m 0,0 km/h (0 Bft) NW 308 0 min 0,000 mm 0,0 UV-I 0 W/m -3,7 C -2,7 C 0,0 km/h (0 Bft)
_ Min-Zeit 23:45 16:45 00:00 - 00:00 - - - - - - 23:45 23:45 00:00
Minimum _ -2,7 C 56 % 1009,6 hPa - 0,0 km/h (0 Bft) - - - - - - -3,7 C -2,7 C 0,0 km/h (0 Bft)
_ Max-Zeit 16:45 00:00 21:10 00:00 14:05 - - 09:05 14:05 13:20 13:25 10:40 13:50 14:05
Maximum _ 7,2 C 96 % 1018,1 hPa 0,0 l/m 6,2 km/h
W-NW (2 Bft)
- - 5 min 0,203 mm 2,2 UV-I 692 W/m 2,2 C 7,1 C 16,1 km/h
SW (3 Bft)
Durchschnitt _ 1,2 C 85 % 1014,9 hPa #0,0 l/m 0,6 km/h (0 Bft) W-NW - #4:35 h #1,118 mm 1,2 UV-I 237 W/m -1,2 C 1,2 C 2,5 km/h (1 Bft)